SCP
0 0 0 0 0 0 0 0 0 0 0 0 0 0 0 0 0 0 0 0 0 0 0 0 0 0 0 0 -0 -0 0 0 0 0 0 0 0 0 0 0 0 0 0 0
0 0 0 0 0 0 0 0 0 0 0 0 0 0 0 0 0 0 0 0 0 0 0 0 0 0 0 0 -0 0 0 0 0 0 0 0 0 0 0 0 0 0 0 0
0 0 0 0 0 0 0 0 0 0 0 0 0 0 0 0 0 0 0 0 0 0 0 0 0 0 0 0 -0 0 0 0 0 0 0 0 0 0 0 0 0 0 0 0
0 0 0 0 0 0 0 0 0 0 0 0 0 0 0 0 0 0 0 0 0 0 0 0 0 0 0 0 0 0 0 0 0 0 0 0 0 0 0 0 0 0 0 0
0 0 0 0 0 0 0 0 0 0 0 0 0 0 0 0 0 0 0 0 0 0 0 0 0 0 0 0 0 0 0 0 0 0 0 0 0 0 0 0 0 0 0 0
0 0 0 0 0 0 0 0 0 0 0 0 0 0 0 0 0 0 0 0 0 0 0 0 0 0 0 -0 -0 0 0 0 0 0 0 0 0 0 0 0 0 0 0 -0
0 0 0 0 0 0 0 0 0 0 0 0 0 0 0 0 0 0 0 0 0 0 0 0 0 0 -0 0 0 0 0 0 0 0 0 0 0 0 0 0 0 0 -0 -0
0 0 0 0 0 0 0 0 0 0 0 0 0 0 0 0 0 0 0 0 0 0 0 0 0 0 0 -0 0 0 0 0 0 0 0 0 0 0 0 0 0 0 0 0
0 0 0 0 0 0 0 0 0 0 0 0 0 0 0 0 0 0 0 0 0 0 0 0 0 0 0 0 0 0 0 0 0 0 0 0 0 0 0 0 0 0 0 0
0 0 0 0 0 0 0 0 0 0 0 0 0 0 0 0 0 0 0 0 0 0 0 0 0 0 0 0 0 0 0 0 0 0 0 0 0 0 0 0 0 0 0 0
0 0 0 0 0 0 0 0 0 0 0 0 0 0 0 0 0 0 0 0 0 0 0 0 0 0 0 0 0 0 0 0 0 0 0 0 0 0 0 0 0 0 0 0
0 0 0 0 0 0 0 0 0 0 0 0 0 0 0 0 0 0 0 0 0 0 0 0 0 0 0 0 0 0 0 0 0 0 0 0 0 0 0 0 0 0 0 0
0 0 0 0 0 0 0 0 0 0 0 0 0 0 0 0 0 0 0 0 0 0 0 0 0 0 0 0 0 0 0 0 0 0 0 0 0 0 0 0 0 0 0 0
0 0 0 0 0 0 0 0 0 0 0 0 0 0 0 0 0 0 0 0 0 0 0 0 0 0 0 0 0 0 0 0 0 0 0 0 0 0 0 0 0 0 0 0
0 0 0 0 0 0 0 0 0 0 0 0 0 0 0 0 0 0 0 0 0 0 0 0 0 0 0 0 0 0 0 0 0 0 0 0 0 0 0 0 0 0 0 0
0 0 0 0 0 0 0 0 0 0 0 0 0 0 0 0 0 0 0 0 0 0 0 0 0 0 0 0 0 0 0 0 0 0 0 0 0 0 0 0 0 0 0 0
0 0 0 0 0 0 0 0 0 0 0 0 0 0 0 0 0 0 0 0 0 0 0 0 0 0 0 0 0 0 0 0 0 0 0 0 0 0 0 0 0 0 0 0
0 0 0 0 0 0 0 0 0 0 0 0 0 0 0 0 0 0 0 0 0 0 0 0 0 0 0 0 0 0 0 0 0 0 0 0 0 0 0 0 0 0 0 0
0 0 0 0 0 0 0 0 0 0 0 0 0 0 0 0 0 0 0 0 0 0 0 0 0 0 0 0 0 0 0 0 0 0 0 0 0 0 0 0 0 0 0 0
0 0 0 0 0 0 0 0 0 0 0 0 0 0 0 0 0 0 0 0 0 0 0 0 0 0 0 0 0 0 0 0 0 0 0 0 0 0 0 0 0 0 0 0
0 0 0 0 0 0 0 0 0 0 0 0 0 0 0 0 0 0 0 0 0 0 0 0 0 0 0 0 0 0 0 0 0 0 0 0 0 0 0 0 0 0 0 0
0 0 0 0 0 0 0 0 0 0 0 0 0 0 0 0 0 0 0 0 0 0 0 0 0 0 0 0 0 0 0 0 0 0 0 0 0 0 0 -0 0 0 0 0
0 0 0 0 0 0 0 0 0 0 0 0 0 0 0 0 0 0 0 0 0 0 0 0 0 0 0 0 0 0 0 0 0 0 0 0 0 0 0 -0 0 0 0 0
0 0 0 0 0 0 0 0 0 0 0 0 0 0 0 0 0 0 0 0 0 0 0 0 0 0 0 0 0 0 0 0 0 0 0 0 -0 -0 0 -0 -0 -0 0 0
0 0 0 0 0 0 0 0 0 0 0 0 0 0 0 0 0 0 0 0 0 0 0 0 0 0 0 0 0 0 0 0 0 0 0 0 -0 -0 -0 -0 -0 -0 -0 -0
0 0 0 0 0 0 0 0 0 0 0 0 0 0 0 0 0 0 0 0 0 0 0 0 0 0 0 0 0 0 0 0 0 0 0 -0 -0 -0 -0 -0 0 -0 -0 -0
Wind_Speed_500mb
10 6 9 8 1 3 7 9 13 13 12 15 15 14 22 39 42 43 39 32 23 14 8 14 19 36 62 68 66 71 75 83 90 96 96 93 91 102 113 101 85 82 85 80
12 10 11 12 10 10 11 13 16 17 6 2 12 19 12 40 39 51 43 31 23 14 8 11 23 42 59 67 66 75 78 86 94 99 89 89 98 106 102 101 83 85 87 83
8 8 8 6 5 7 10 12 10 14 11 12 14 16 13 13 26 44 37 29 20 10 3 11 26 47 56 65 66 76 81 89 94 94 102 108 107 109 103 84 70 70 75 71
10 6 7 5 10 12 11 4 3 9 8 8 4 16 8 18 20 24 41 34 22 13 2 11 28 45 51 60 69 79 86 89 93 98 105 107 109 112 103 98 100 102 78 78
18 8 10 8 9 8 10 3 9 10 17 5 11 9 10 26 24 24 28 28 19 10 1 15 35 45 56 62 71 85 85 90 96 101 108 109 109 105 103 100 98 89 88 69
14 1 9 12 5 6 5 6 11 7 4 8 18 22 9 15 29 28 28 30 21 9 4 20 39 45 56 65 83 88 86 97 102 107 111 102 100 102 98 100 88 85 77 84
10 9 3 5 3 5 4 6 8 10 3 14 3 3 27 13 15 36 31 36 22 9 9 25 39 53 71 73 82 89 91 102 105 110 112 103 104 93 91 91 81 77 84 83
7 12 11 8 7 12 11 12 9 13 8 13 13 15 10 5 35 51 41 34 22 6 9 28 52 71 67 69 89 91 95 103 107 113 115 114 108 90 102 80 89 92 84 80
5 11 4 8 3 5 6 9 3 4 3 4 9 10 7 6 16 26 35 31 18 7 18 42 54 60 63 69 92 91 94 102 107 114 118 122 112 109 94 84 95 77 70 80
7 14 0 3 3 5 4 7 4 2 7 13 12 15 17 24 28 17 18 23 10 9 23 32 44 55 61 73 88 88 93 101 107 113 117 121 124 109 93 101 79 81 84 68
10 10 4 8 14 18 3 7 7 5 9 9 5 14 9 35 33 23 20 25 15 11 13 34 50 58 62 78 86 90 95 101 108 112 116 117 120 108 99 95 91 87 68 68
14 9 10 23 7 4 6 19 20 10 13 8 14 36 15 27 26 33 32 28 16 10 20 37 49 59 68 85 87 92 96 103 108 110 113 114 117 109 96 92 95 86 74 66
17 7 5 15 8 7 12 10 11 5 1 37 18 19 3 16 20 35 39 28 19 9 20 31 50 67 79 83 89 95 99 106 112 113 115 117 116 104 98 93 90 86 75 78
25 11 19 36 39 6 16 16 19 27 19 46 52 69 24 14 23 24 30 26 17 7 28 38 56 71 80 84 89 95 103 107 112 115 118 118 114 106 100 91 92 84 76 70
14 18 14 36 29 13 43 30 32 38 54 36 77 50 52 37 34 30 29 17 4 20 34 37 58 73 80 85 91 97 101 106 111 114 117 117 113 107 99 96 85 87 79 70
8 12 7 33 18 32 54 38 41 55 62 60 66 74 60 52 18 29 23 10 8 21 28 42 59 70 79 84 90 98 102 106 109 114 117 119 116 107 103 100 86 86 81 74
21 12 9 30 2 10 30 45 59 45 49 48 49 69 46 31 16 25 22 3 14 21 26 46 57 67 74 79 85 94 99 103 106 110 116 120 117 110 105 97 87 80 78 70
22 16 9 6 9 15 16 5 16 42 52 41 45 47 24 15 24 27 15 4 2 11 33 44 55 65 69 75 83 90 94 99 104 109 115 117 117 106 102 91 83 75 73 74
24 17 8 8 14 22 44 16 16 18 45 45 51 43 14 30 28 8 12 5 3 22 32 42 53 59 67 74 81 90 96 100 103 109 115 116 111 102 99 92 91 88 87 82
10 16 16 9 10 18 2 6 21 13 31 28 34 16 21 29 7 7 21 6 11 21 31 42 48 55 62 69 76 85 93 98 104 107 114 112 104 99 98 91 90 85 80 78
11 11 32 25 16 20 19 14 24 10 13 9 31 37 37 10 9 15 17 15 17 21 31 38 42 50 56 64 74 81 88 94 100 103 107 106 101 101 91 89 86 78 73 71
26 21 12 14 12 31 36 23 20 9 16 27 31 40 43 26 20 20 21 18 16 20 27 33 41 47 52 60 69 78 85 91 96 101 102 106 103 101 93 89 82 77 63 69
13 23 18 26 22 6 75 15 51 27 35 30 42 44 42 32 34 32 28 22 18 20 24 30 38 43 49 55 62 73 81 88 94 98 100 105 103 101 94 89 82 80 66 65
15 24 10 13 37 34 52 35 49 42 35 47 46 48 39 33 37 36 30 24 20 17 21 29 37 42 48 54 60 68 77 83 88 95 98 100 102 105 99 90 77 74 69 68
18 38 35 21 15 15 38 57 52 53 41 52 47 43 36 36 40 35 32 26 19 15 19 26 34 40 47 54 60 66 73 79 83 87 91 95 98 98 100 91 76 65 54 57
21 21 24 21 19 37 25 79 68 67 61 58 54 45 42 44 39 35 32 27 19 16 18 24 30 37 45 52 57 62 66 72 76 81 86 89 94 95 95 97 94 69 57 52
Wind_Direction_500mb
297 65 261 210 138 256 262 260 251 262 247 202 227 238 190 181 169 164 163 155 146 109 58 357 332 340 348 355 354 351 348 349 349 343 342 336 325 313 307 311 308 301 300 296
12 250 195 173 207 226 232 261 271 286 167 313 259 249 238 184 182 171 165 163 151 124 48 355 331 342 349 352 351 350 348 349 347 345 334 323 319 319 313 307 294 294 296 297
174 224 174 182 206 232 246 228 253 256 332 297 281 274 189 191 171 176 170 167 138 120 26 337 336 344 345 349 347 348 348 346 343 339 336 334 327 324 318 311 307 297 288 290
236 210 167 197 244 176 261 163 225 282 354 242 118 288 213 179 182 183 180 165 148 131 59 326 337 342 343 344 346 348 346 339 338 339 339 337 332 326 322 314 300 286 291 287
248 196 212 229 229 151 241 52 249 249 246 359 233 251 255 167 204 195 175 159 145 145 302 330 340 342 340 344 347 348 338 335 338 338 340 336 333 324 321 316 311 304 281 285
243 33 175 206 139 186 14 309 262 215 169 256 232 203 228 182 216 175 169 156 152 161 298 330 342 338 342 345 348 339 336 334 337 337 338 333 329 327 318 317 313 309 300 283
336 218 100 135 133 20 79 50 320 339 331 238 182 284 246 212 188 171 159 156 158 169 315 334 339 342 349 346 340 336 335 334 335 333 334 332 327 324 316 313 308 308 303 287
228 300 177 173 193 186 192 165 169 263 240 276 324 254 240 147 127 137 143 150 156 186 303 333 348 352 343 340 335 335 335 331 333 332 332 332 330 319 319 312 307 302 301 297
249 256 95 41 10 143 178 182 162 287 105 5 240 278 340 131 139 142 147 155 165 193 329 349 347 342 341 333 334 333 330 331 332 330 331 332 330 320 320 307 317 307 300 295
199 290 93 164 68 317 218 171 85 72 287 273 266 260 232 190 197 181 168 162 177 314 334 336 335 340 339 330 330 330 331 331 331 331 330 330 329 324 313 313 315 298 297 298
149 172 201 128 199 187 143 227 229 188 174 235 281 255 234 192 189 183 181 170 195 254 305 334 340 343 333 326 331 331 332 331 332 330 329 328 329 324 317 311 314 309 296 285
204 169 231 224 208 228 179 202 189 209 222 240 256 272 174 185 182 166 168 180 200 248 324 339 341 339 330 330 332 331 332 331 331 330 327 328 328 327 319 313 313 312 304 296
181 211 340 298 6 342 226 205 212 266 277 240 247 262 157 143 151 169 172 188 193 252 330 336 343 339 329 330 331 332 332 331 331 329 330 331 331 327 318 314 312 308 303 298
164 203 202 254 269 128 238 188 204 217 245 253 241 259 234 200 177 177 181 188 193 307 342 342 341 331 329 330 331 331 331 331 330 331 331 334 332 325 319 313 312 309 308 302
166 240 195 256 273 282 266 253 227 221 236 234 258 248 259 251 246 233 183 166 350 342 341 340 334 328 328 331 331 330 331 330 332 332 333 335 332 327 319 316 309 304 300 295
178 251 159 273 237 245 260 250 246 241 245 244 252 267 261 274 189 161 166 157 344 339 341 335 329 327 329 332 330 329 331 332 334 334 335 337 334 325 321 321 314 308 303 298
168 186 159 261 107 323 274 238 229 241 240 230 243 247 275 257 189 171 158 161 342 336 328 331 327 327 328 330 329 328 331 333 336 336 337 339 332 328 325 324 321 317 311 308
176 186 173 267 90 255 258 166 215 231 247 235 252 257 243 152 165 158 158 199 247 325 330 323 325 327 329 330 329 330 334 336 338 338 339 338 335 328 331 328 326 323 319 312
212 178 196 213 208 314 296 246 174 182 275 210 232 245 231 147 136 141 175 168 323 324 320 324 326 327 331 332 333 334 337 338 340 341 339 341 337 336 336 332 331 326 319 313
162 219 204 154 212 225 174 146 122 107 278 201 212 203 144 144 161 204 178 213 289 306 315 324 328 331 332 335 336 338 339 340 343 341 340 342 341 343 338 331 324 325 320 310
168 192 213 222 235 272 227 170 146 145 260 150 170 156 156 171 176 150 191 223 270 300 317 323 330 335 338 339 339 341 341 343 341 342 341 344 348 347 340 336 335 333 330 327
176 169 193 202 211 258 154 147 192 178 150 161 168 169 169 162 173 198 205 238 261 295 314 326 333 339 343 343 343 344 345 343 343 344 344 350 352 349 347 343 344 341 343 345
197 188 176 195 210 189 173 191 199 178 175 179 174 174 171 182 197 205 220 230 258 289 314 329 335 342 348 349 350 347 346 345 345 346 350 355 354 353 353 348 349 347 351 344
236 197 219 154 228 216 197 206 197 194 194 191 187 181 190 201 203 209 214 222 248 282 315 333 338 345 349 351 355 352 349 347 349 349 356 359 357 357 356 355 356 349 350 347
195 166 201 242 239 171 209 208 207 200 195 189 189 194 208 205 202 209 211 220 241 280 314 331 341 347 350 354 356 355 351 350 352 354 359 2 2 2 359 359 357 351 348 347
186 189 190 210 173 201 194 211 210 202 196 199 199 198 207 207 207 208 209 224 242 278 313 334 342 346 352 357 355 354 354 355 355 358 2 7 7 7 6 4 360 8 354 352
Wind_Speed_850mb
10 6 9 8 1 3 7 9 13 13 12 15 15 14 22 39 42 43 39 32 23 14 8 14 19 36 62 68 66 71 75 83 90 96 96 93 91 102 113 101 85 82 85 80
12 10 11 12 10 10 11 13 16 17 6 2 12 19 12 40 39 51 43 31 23 14 8 11 23 42 59 67 66 75 78 86 94 99 89 89 98 106 102 101 83 85 87 83
8 8 8 6 5 7 10 12 10 14 11 12 14 16 13 13 26 44 37 29 20 10 3 11 26 47 56 65 66 76 81 89 94 94 102 108 107 109 103 84 70 70 75 71
10 6 7 5 10 12 11 4 3 9 8 8 4 16 8 18 20 24 41 34 22 13 2 11 28 45 51 60 69 79 86 89 93 98 105 107 109 112 103 98 100 102 78 78
18 8 10 8 9 8 10 3 9 10 17 5 11 9 10 26 24 24 28 28 19 10 1 15 35 45 56 62 71 85 85 90 96 101 108 109 109 105 103 100 98 89 88 69
14 1 9 12 5 6 5 6 11 7 4 8 18 22 9 15 29 28 28 30 21 9 4 20 39 45 56 65 83 88 86 97 102 107 111 102 100 102 98 100 88 85 77 84
10 9 3 5 3 5 4 6 8 10 3 14 3 3 27 13 15 36 31 36 22 9 9 25 39 53 71 73 82 89 91 102 105 110 112 103 104 93 91 91 81 77 84 83
7 12 11 8 7 12 11 12 9 13 8 13 13 15 10 5 35 51 41 34 22 6 9 28 52 71 67 69 89 91 95 103 107 113 115 114 108 90 102 80 89 92 84 80
5 11 4 8 3 5 6 9 3 4 3 4 9 10 7 6 16 26 35 31 18 7 18 42 54 60 63 69 92 91 94 102 107 114 118 122 112 109 94 84 95 77 70 80
7 14 0 3 3 5 4 7 4 2 7 13 12 15 17 24 28 17 18 23 10 9 23 32 44 55 61 73 88 88 93 101 107 113 117 121 124 109 93 101 79 81 84 68
10 10 4 8 14 18 3 7 7 5 9 9 5 14 9 35 33 23 20 25 15 11 13 34 50 58 62 78 86 90 95 101 108 112 116 117 120 108 99 95 91 87 68 68
14 9 10 23 7 4 6 19 20 10 13 8 14 36 15 27 26 33 32 28 16 10 20 37 49 59 68 85 87 92 96 103 108 110 113 114 117 109 96 92 95 86 74 66
17 7 5 15 8 7 12 10 11 5 1 37 18 19 3 16 20 35 39 28 19 9 20 31 50 67 79 83 89 95 99 106 112 113 115 117 116 104 98 93 90 86 75 78
25 11 19 36 39 6 16 16 19 27 19 46 52 69 24 14 23 24 30 26 17 7 28 38 56 71 80 84 89 95 103 107 112 115 118 118 114 106 100 91 92 84 76 70
14 18 14 36 29 13 43 30 32 38 54 36 77 50 52 37 34 30 29 17 4 20 34 37 58 73 80 85 91 97 101 106 111 114 117 117 113 107 99 96 85 87 79 70
8 12 7 33 18 32 54 38 41 55 62 60 66 74 60 52 18 29 23 10 8 21 28 42 59 70 79 84 90 98 102 106 109 114 117 119 116 107 103 100 86 86 81 74
21 12 9 30 2 10 30 45 59 45 49 48 49 69 46 31 16 25 22 3 14 21 26 46 57 67 74 79 85 94 99 103 106 110 116 120 117 110 105 97 87 80 78 70
22 16 9 6 9 15 16 5 16 42 52 41 45 47 24 15 24 27 15 4 2 11 33 44 55 65 69 75 83 90 94 99 104 109 115 117 117 106 102 91 83 75 73 74
24 17 8 8 14 22 44 16 16 18 45 45 51 43 14 30 28 8 12 5 3 22 32 42 53 59 67 74 81 90 96 100 103 109 115 116 111 102 99 92 91 88 87 82
10 16 16 9 10 18 2 6 21 13 31 28 34 16 21 29 7 7 21 6 11 21 31 42 48 55 62 69 76 85 93 98 104 107 114 112 104 99 98 91 90 85 80 78
11 11 32 25 16 20 19 14 24 10 13 9 31 37 37 10 9 15 17 15 17 21 31 38 42 50 56 64 74 81 88 94 100 103 107 106 101 101 91 89 86 78 73 71
26 21 12 14 12 31 36 23 20 9 16 27 31 40 43 26 20 20 21 18 16 20 27 33 41 47 52 60 69 78 85 91 96 101 102 106 103 101 93 89 82 77 63 69
13 23 18 26 22 6 75 15 51 27 35 30 42 44 42 32 34 32 28 22 18 20 24 30 38 43 49 55 62 73 81 88 94 98 100 105 103 101 94 89 82 80 66 65
15 24 10 13 37 34 52 35 49 42 35 47 46 48 39 33 37 36 30 24 20 17 21 29 37 42 48 54 60 68 77 83 88 95 98 100 102 105 99 90 77 74 69 68
18 38 35 21 15 15 38 57 52 53 41 52 47 43 36 36 40 35 32 26 19 15 19 26 34 40 47 54 60 66 73 79 83 87 91 95 98 98 100 91 76 65 54 57
21 21 24 21 19 37 25 79 68 67 61 58 54 45 42 44 39 35 32 27 19 16 18 24 30 37 45 52 57 62 66 72 76 81 86 89 94 95 95 97 94 69 57 52
Wind_Direction_850mb
297 65 261 210 138 256 262 260 251 262 247 202 227 238 190 181 169 164 163 155 146 109 58 357 332 340 348 355 354 351 348 349 349 343 342 336 325 313 307 311 308 301 300 296
12 250 195 173 207 226 232 261 271 286 167 313 259 249 238 184 182 171 165 163 151 124 48 355 331 342 349 352 351 350 348 349 347 345 334 323 319 319 313 307 294 294 296 297
174 224 174 182 206 232 246 228 253 256 332 297 281 274 189 191 171 176 170 167 138 120 26 337 336 344 345 349 347 348 348 346 343 339 336 334 327 324 318 311 307 297 288 290
236 210 167 197 244 176 261 163 225 282 354 242 118 288 213 179 182 183 180 165 148 131 59 326 337 342 343 344 346 348 346 339 338 339 339 337 332 326 322 314 300 286 291 287
248 196 212 229 229 151 241 52 249 249 246 359 233 251 255 167 204 195 175 159 145 145 302 330 340 342 340 344 347 348 338 335 338 338 340 336 333 324 321 316 311 304 281 285
243 33 175 206 139 186 14 309 262 215 169 256 232 203 228 182 216 175 169 156 152 161 298 330 342 338 342 345 348 339 336 334 337 337 338 333 329 327 318 317 313 309 300 283
336 218 100 135 133 20 79 50 320 339 331 238 182 284 246 212 188 171 159 156 158 169 315 334 339 342 349 346 340 336 335 334 335 333 334 332 327 324 316 313 308 308 303 287
228 300 177 173 193 186 192 165 169 263 240 276 324 254 240 147 127 137 143 150 156 186 303 333 348 352 343 340 335 335 335 331 333 332 332 332 330 319 319 312 307 302 301 297
249 256 95 41 10 143 178 182 162 287 105 5 240 278 340 131 139 142 147 155 165 193 329 349 347 342 341 333 334 333 330 331 332 330 331 332 330 320 320 307 317 307 300 295
199 290 93 164 68 317 218 171 85 72 287 273 266 260 232 190 197 181 168 162 177 314 334 336 335 340 339 330 330 330 331 331 331 331 330 330 329 324 313 313 315 298 297 298
149 172 201 128 199 187 143 227 229 188 174 235 281 255 234 192 189 183 181 170 195 254 305 334 340 343 333 326 331 331 332 331 332 330 329 328 329 324 317 311 314 309 296 285
204 169 231 224 208 228 179 202 189 209 222 240 256 272 174 185 182 166 168 180 200 248 324 339 341 339 330 330 332 331 332 331 331 330 327 328 328 327 319 313 313 312 304 296
181 211 340 298 6 342 226 205 212 266 277 240 247 262 157 143 151 169 172 188 193 252 330 336 343 339 329 330 331 332 332 331 331 329 330 331 331 327 318 314 312 308 303 298
164 203 202 254 269 128 238 188 204 217 245 253 241 259 234 200 177 177 181 188 193 307 342 342 341 331 329 330 331 331 331 331 330 331 331 334 332 325 319 313 312 309 308 302
166 240 195 256 273 282 266 253 227 221 236 234 258 248 259 251 246 233 183 166 350 342 341 340 334 328 328 331 331 330 331 330 332 332 333 335 332 327 319 316 309 304 300 295
178 251 159 273 237 245 260 250 246 241 245 244 252 267 261 274 189 161 166 157 344 339 341 335 329 327 329 332 330 329 331 332 334 334 335 337 334 325 321 321 314 308 303 298
168 186 159 261 107 323 274 238 229 241 240 230 243 247 275 257 189 171 158 161 342 336 328 331 327 327 328 330 329 328 331 333 336 336 337 339 332 328 325 324 321 317 311 308
176 186 173 267 90 255 258 166 215 231 247 235 252 257 243 152 165 158 158 199 247 325 330 323 325 327 329 330 329 330 334 336 338 338 339 338 335 328 331 328 326 323 319 312
212 178 196 213 208 314 296 246 174 182 275 210 232 245 231 147 136 141 175 168 323 324 320 324 326 327 331 332 333 334 337 338 340 341 339 341 337 336 336 332 331 326 319 313
162 219 204 154 212 225 174 146 122 107 278 201 212 203 144 144 161 204 178 213 289 306 315 324 328 331 332 335 336 338 339 340 343 341 340 342 341 343 338 331 324 325 320 310
168 192 213 222 235 272 227 170 146 145 260 150 170 156 156 171 176 150 191 223 270 300 317 323 330 335 338 339 339 341 341 343 341 342 341 344 348 347 340 336 335 333 330 327
176 169 193 202 211 258 154 147 192 178 150 161 168 169 169 162 173 198 205 238 261 295 314 326 333 339 343 343 343 344 345 343 343 344 344 350 352 349 347 343 344 341 343 345
197 188 176 195 210 189 173 191 199 178 175 179 174 174 171 182 197 205 220 230 258 289 314 329 335 342 348 349 350 347 346 345 345 346 350 355 354 353 353 348 349 347 351 344
236 197 219 154 228 216 197 206 197 194 194 191 187 181 190 201 203 209 214 222 248 282 315 333 338 345 349 351 355 352 349 347 349 349 356 359 357 357 356 355 356 349 350 347
195 166 201 242 239 171 209 208 207 200 195 189 189 194 208 205 202 209 211 220 241 280 314 331 341 347 350 354 356 355 351 350 352 354 359 2 2 2 359 359 357 351 348 347
186 189 190 210 173 201 194 211 210 202 196 199 199 198 207 207 207 208 209 224 242 278 313 334 342 346 352 357 355 354 354 355 355 358 2 7 7 7 6 4 360 8 354 352